TimePDT,TemperatureF,Dew PointF,Humidity,Sea Level PressureIn,VisibilityMPH,Wind Direction,Wind SpeedMPH,Gust SpeedMPH,PrecipitationIn,Events,Conditions,WindDirDegrees,DateUTC
12:00 AM,46.4,42.8,87,30.15,6.0,West,11.5,18.4,N/A,Rain,Light Rain,270,2013-04-11 07:00:00
12:26 AM,46.4,42.8,87,30.15,5.0,West,11.5,19.6,N/A,Rain,Light Rain,270,2013-04-11 07:26:00
12:49 AM,46.4,42.8,87,30.15,6.0,West,15.0,21.9,N/A,Rain,Light Rain,280,2013-04-11 07:49:00
12:57 AM,46.4,42.8,87,30.15,5.0,WNW,13.8,23.0,N/A,Rain,Rain,290,2013-04-11 07:57:00
1:00 AM,46.4,42.8,87,30.15,4.0,WNW,15.0,23.0,N/A,Rain,Rain,300,2013-04-11 08:00:00
2:00 AM,45,43,92,30.16,,West,13.8,,,,,280,2013-04-11 09:00:00
2:00 AM,44.6,42.8,93,30.15,3.0,WNW,15.0,25.3,N/A,Rain,Rain,290,2013-04-11 09:00:00
2:17 AM,44.6,42.8,93,30.15,6.0,WNW,13.8,26.5,N/A,Rain,Light Rain,300,2013-04-11 09:17:00
2:23 AM,44.6,42.8,93,30.15,5.0,WNW,13.8,24.2,N/A,Rain,Light Rain,290,2013-04-11 09:23:00
3:00 AM,44.6,42.8,93,30.15,3.0,WNW,18.4,26.5,N/A,Rain,Light Rain,290,2013-04-11 10:00:00
3:14 AM,44.6,41.0,87,30.15,6.0,WNW,11.5,25.3,N/A,Rain,Light Rain,290,2013-04-11 10:14:00
3:20 AM,44.6,41.0,87,30.15,5.0,WNW,17.3,26.5,N/A,Rain,Light Rain,300,2013-04-11 10:20:00
3:34 AM,44.6,41.0,87,30.15,6.0,West,13.8,27.6,N/A,Rain,Light Rain,280,2013-04-11 10:34:00
3:49 AM,44.6,41.0,87,30.16,5.0,NW,12.7,20.7,N/A,Rain,Light Rain,310,2013-04-11 10:49:00
3:54 AM,44.6,41.0,87,30.16,6.0,WNW,13.8,25.3,N/A,Rain,Light Rain,290,2013-04-11 10:54:00
3:57 AM,44.6,41.0,87,30.17,5.0,WNW,9.2,25.3,N/A,Rain,Light Rain,300,2013-04-11 10:57:00
3:59 AM,44.6,41.0,87,30.17,6.0,WNW,12.7,25.3,N/A,Rain,Light Rain,300,2013-04-11 10:59:00
4:00 AM,44.6,41.0,87,30.17,6.0,WNW,10.4,25.3,N/A,Rain,Light Rain,300,2013-04-11 11:00:00
4:19 AM,44.6,41.0,87,30.17,5.0,WNW,12.7,27.6,N/A,Rain,Light Rain,300,2013-04-11 11:19:00
4:26 AM,44.6,41.0,87,30.17,6.0,WNW,12.7,27.6,N/A,Rain,Light Rain,290,2013-04-11 11:26:00
5:00 AM,45,42,83,30.17,,West,12.7,,,,,270,2013-04-11 12:00:00
5:00 AM,44.6,41.0,87,30.17,9.0,WNW,12.7,20.7,N/A,Rain,Light Rain,290,2013-04-11 12:00:00
5:59 AM,46.4,39.2,76,30.19,9.0,WNW,10.4,21.9,N/A,,Overcast,290,2013-04-11 12:59:00
6:00 AM,46.4,39.2,76,30.18,9.0,WNW,11.5,21.9,N/A,,Overcast,300,2013-04-11 13:00:00
6:51 AM,44.6,39.2,81,30.20,9.0,WNW,11.5,19.6,N/A,Rain,Light Rain,290,2013-04-11 13:51:00
7:00 AM,46.4,39.2,76,30.20,9.0,WNW,12.7,23.0,N/A,Rain,Light Rain,290,2013-04-11 14:00:00
7:02 AM,44.6,39.2,81,30.20,9.0,WNW,10.4,23.0,N/A,,Overcast,300,2013-04-11 14:02:00
7:11 AM,46.4,39.2,76,30.20,9.0,WNW,11.5,20.7,N/A,Rain,Light Rain,290,2013-04-11 14:11:00
7:32 AM,46.4,39.2,76,30.21,9.0,WNW,11.5,24.2,N/A,,Overcast,290,2013-04-11 14:32:00
8:00 AM,46,40,74,30.22,,West,11.5,,,,,270,2013-04-11 15:00:00
8:00 AM,46.4,39.2,76,30.22,9.0,WNW,12.7,19.6,N/A,,Overcast,290,2013-04-11 15:00:00
8:04 AM,46.4,39.2,76,30.22,9.0,West,13.8,20.7,N/A,Rain,Light Rain,280,2013-04-11 15:04:00
9:04 AM,46.4,39.2,76,30.22,9.0,WNW,13.8,25.3,N/A,,Overcast,290,2013-04-11 16:04:00
10:00 AM,48.2,39.2,71,30.23,9.0,WNW,11.5,20.7,N/A,,Mostly Cloudy,300,2013-04-11 17:00:00
10:09 AM,48.2,37.4,66,30.24,9.0,WNW,10.4,18.4,N/A,Rain,Light Rain,300,2013-04-11 17:09:00
10:24 AM,48.2,39.2,71,30.23,9.0,NW,10.4,21.9,N/A,,Overcast,310,2013-04-11 17:24:00
11:00 AM,48,38,60,30.26,,West,13.8,,,,,280,2013-04-11 18:00:00
11:00 AM,48.2,37.4,66,30.26,9.0,WNW,15.0,26.5,N/A,,Overcast,290,2013-04-11 18:00:00
12:00 PM,50.0,39.2,66,30.25,9.0,West,13.8,-,N/A,,Overcast,280,2013-04-11 19:00:00
1:00 PM,53.6,39.2,58,30.23,9.0,WNW,12.7,19.6,N/A,,Mostly Cloudy,290,2013-04-11 20:00:00
2:00 PM,52,36,42,30.23,,West,11.5,,,,,270,2013-04-11 21:00:00
2:00 PM,51.8,35.6,54,30.22,9.0,WNW,12.7,21.9,N/A,,Overcast,290,2013-04-11 21:00:00
3:00 PM,53.6,35.6,51,30.22,9.0,West,11.5,20.7,N/A,,Mostly Cloudy,280,2013-04-11 22:00:00
4:00 PM,55.4,35.6,47,30.22,9.0,West,16.1,23.0,N/A,,Mostly Cloudy,280,2013-04-11 23:00:00
5:00 PM,53,34,37,30.23,,West,10.4,,,,,270,2013-04-12 00:00:00
5:00 PM,53.6,33.8,47,30.23,9.0,West,11.5,17.3,N/A,,Overcast,280,2013-04-12 00:00:00
6:00 PM,53.6,32.0,44,30.21,9.0,West,3.5,-,N/A,,Clear,280,2013-04-12 01:00:00
7:00 PM,48.2,35.6,62,30.21,9.0,SSW,6.9,-,N/A,,Mostly Cloudy,210,2013-04-12 02:00:00
8:00 PM,46,39,67,30.21,,SSW,1.2,,,,,200,2013-04-12 03:00:00
8:00 PM,46.4,37.4,71,30.22,9.0,Calm,Calm,-,N/A,,Mostly Cloudy,0,2013-04-12 03:00:00
9:00 PM,42.8,37.4,81,30.22,9.0,Variable,2.3,-,N/A,,Clear,0,2013-04-12 04:00:00
10:00 PM,39.2,35.6,87,30.22,9.0,Calm,Calm,-,N/A,,Clear,0,2013-04-12 05:00:00
11:00 PM,39,37,90,30.22,,East,3.5,,,,,90,2013-04-12 06:00:00
11:00 PM,39.2,37.4,93,30.22,9.0,East,3.5,-,N/A,,Mostly Cloudy,100,2013-04-12 06:00:00